| time (UTC) | temp F | wind direction | speed MPH | gust MPH | rain 1hr in | rain 24hr in | rain mn in | humidity % | barometer mb |
| 20260505152916 | 77 | 260 | 6.0 | 9.0 | 0.00 | 0.00 | 0.00 | 50 | 1011.9 |
| 20260505152413 | 77 | 263 | 6.0 | 11.0 | 0.00 | 0.00 | 0.00 | 51 | 1011.8 |
| 20260505151908 | 77 | 274 | 3.0 | 8.0 | 0.00 | 0.00 | 0.00 | 52 | 1011.9 |
| 20260505151405 | 76 | 256 | 7.0 | 13.0 | 0.00 | 0.00 | 0.00 | 50 | 1011.9 |
| 20260505150901 | 76 | 331 | 5.0 | 8.0 | 0.00 | 0.00 | 0.00 | 50 | 1011.9 |
| 20260505150359 | 76 | 317 | 6.0 | 15.0 | 0.00 | 0.00 | 0.00 | 50 | 1011.9 |
| 20260505140317 | 73 | 234 | 3.0 | 8.0 | 0.00 | 0.00 | 0.00 | 56 | 1012.3 |
| 20260505130241 | 67 | 290 | 3.0 | 8.0 | 0.00 | 0.00 | 0.00 | 64 | 1013.0 |
| 20260505124731 | 67 | 262 | 3.0 | 7.0 | 0.00 | 0.00 | 0.00 | 63 | 1012.7 |
| 20260505124228 | 67 | 327 | 5.0 | 8.0 | 0.00 | 0.00 | 0.00 | 64 | 1012.9 |
| 20260505123723 | 66 | 256 | 3.0 | 6.0 | 0.00 | 0.00 | 0.00 | 64 | 1012.7 |
| 20260505123220 | 66 | 286 | 4.0 | 9.0 | 0.00 | 0.00 | 0.00 | 65 | 1012.7 |
| 20260505122717 | 66 | 322 | 4.0 | 7.0 | 0.00 | 0.00 | 0.00 | 64 | 1012.8 |
| 20260505122214 | 65 | 311 | 4.0 | 11.0 | 0.00 | 0.00 | 0.00 | 65 | 1012.6 |
| 20260505121711 | 65 | 255 | 9.0 | 11.0 | 0.00 | 0.00 | 0.00 | 65 | 1012.5 |
| 20260505121207 | 64 | 0 | 3.0 | 8.0 | 0.00 | 0.00 | 0.00 | 66 | 1012.5 |
| 20260505120704 | 65 | 298 | 5.0 | 7.0 | 0.00 | 0.00 | 0.00 | 66 | 1012.5 |
| 20260505120159 | 65 | 224 | 1.0 | 7.0 | 0.00 | 0.00 | 0.00 | 67 | 1012.3 |
| 20260505115653 | 65 | 237 | 5.0 | 8.0 | 0.00 | 0.00 | 0.00 | 66 | 1012.5 |
| 20260505115151 | 64 | 307 | 4.0 | 7.0 | 0.00 | 0.00 | 0.00 | 68 | 1012.5 |
| 20260505114648 | 64 | 224 | 2.0 | 4.0 | 0.00 | 0.00 | 0.00 | 69 | 1012.4 |
| 20260505114144 | 63 | 292 | 2.0 | 6.0 | 0.00 | 0.00 | 0.00 | 69 | 1012.2 |
| 20260505113641 | 62 | 247 | 2.0 | 7.0 | 0.00 | 0.00 | 0.00 | 70 | 1012.1 |
| 20260505113138 | 62 | 255 | 2.0 | 4.0 | 0.00 | 0.00 | 0.00 | 71 | 1012.5 |
| 20260505112633 | 62 | 297 | 3.0 | 6.0 | 0.00 | 0.00 | 0.00 | 71 | 1012.4 |
| 20260505112132 | 62 | 257 | 3.0 | 4.0 | 0.00 | 0.00 | 0.00 | 71 | 1012.3 |
| 20260505111626 | 62 | 317 | 3.0 | 7.0 | 0.00 | 0.00 | 0.00 | 71 | 1012.4 |
| 20260505111122 | 62 | 350 | 5.0 | 6.0 | 0.00 | 0.00 | 0.00 | 70 | 1012.1 |
| 20260505110618 | 61 | 318 | 3.0 | 6.0 | 0.00 | 0.00 | 0.00 | 72 | 1012.0 |
| 20260505110115 | 59 | 195 | 0.0 | 1.0 | 0.00 | 0.00 | 0.00 | 77 | 1012.2 |
| 20260505102051 | 54 | 136 | 1.0 | 2.0 | 0.00 | 0.00 | 0.00 | 84 | 1011.8 |
| 20260505101550 | 54 | 148 | 0.0 | 0.0 | 0.00 | 0.00 | 0.00 | 84 | 1011.8 |
| 20260505101046 | 54 | 91 | 1.0 | 1.0 | 0.00 | 0.00 | 0.00 | 84 | 1011.8 |
| 20260505100542 | 54 | 105 | 0.0 | 1.0 | 0.00 | 0.00 | 0.00 | 84 | 1011.7 |
| 20260505100039 | 54 | 141 | 0.0 | 1.0 | 0.00 | 0.00 | 0.00 | 83 | 1011.9 |
| 20260505095535 | 54 | 110 | 0.0 | 1.0 | 0.00 | 0.00 | 0.00 | 83 | 1011.6 |
| 20260505095032 | 54 | 84 | 0.0 | 1.0 | 0.00 | 0.00 | 0.00 | 83 | 1011.6 |
| 20260505094528 | 55 | 133 | 1.0 | 2.0 | 0.00 | 0.00 | 0.00 | 82 | 1011.8 |
| 20260505094025 | 55 | 90 | 0.0 | 1.0 | 0.00 | 0.00 | 0.00 | 82 | 1011.5 |
| 20260505093521 | 54 | 73 | 0.0 | 1.0 | 0.00 | 0.00 | 0.00 | 82 | 1011.5 |
| 20260505093019 | 55 | 40 | 1.0 | 2.0 | 0.00 | 0.00 | 0.00 | 83 | 1011.6 |
| 20260505092516 | 56 | 199 | 1.0 | 2.0 | 0.00 | 0.00 | 0.00 | 80 | 1011.7 |
| 20260505092014 | 56 | 71 | 1.0 | 1.0 | 0.00 | 0.00 | 0.00 | 79 | 1011.4 |
| 20260505091511 | 56 | 149 | 0.0 | 2.0 | 0.00 | 0.00 | 0.00 | 78 | 1011.5 |
| 20260505091009 | 57 | 148 | 0.0 | 1.0 | 0.00 | 0.00 | 0.00 | 77 | 1011.6 |
| 20260505090507 | 56 | 42 | 1.0 | 2.0 | 0.00 | 0.00 | 0.00 | 78 | 1011.3 |
| 20260505090004 | 56 | 139 | 1.0 | 2.0 | 0.00 | 0.00 | 0.00 | 78 | 1011.5 |
| 20260505085502 | 56 | 140 | 0.0 | 1.0 | 0.00 | 0.00 | 0.00 | 78 | 1011.5 |
| 20260505085000 | 57 | 106 | 1.0 | 2.0 | 0.00 | 0.00 | 0.00 | 76 | 1011.5 |
| 20260505084458 | 57 | 139 | 2.0 | 2.0 | 0.00 | 0.00 | 0.00 | 76 | 1011.4 |
| 20260505083956 | 57 | 77 | 0.0 | 1.0 | 0.00 | 0.00 | 0.00 | 76 | 1011.5 |
| 20260505083453 | 57 | 152 | 2.0 | 2.0 | 0.00 | 0.00 | 0.00 | 76 | 1011.4 |
| 20260505082949 | 58 | 284 | 0.0 | 0.0 | 0.00 | 0.00 | 0.00 | 75 | 1011.4 |
| 20260505082445 | 59 | 187 | 2.0 | 3.0 | 0.00 | 0.00 | 0.00 | 73 | 1011.4 |
| 20260505081942 | 59 | 62 | 1.0 | 2.0 | 0.00 | 0.00 | 0.00 | 73 | 1011.2 |
| 20260505081439 | 59 | 110 | 1.0 | 1.0 | 0.00 | 0.00 | 0.00 | 73 | 1011.2 |
| 20260505080935 | 59 | 148 | 1.0 | 1.0 | 0.00 | 0.00 | 0.00 | 72 | 1011.3 |
| 20260505080431 | 60 | 143 | 1.0 | 2.0 | 0.00 | 0.00 | 0.00 | 71 | 1011.4 |
| 20260505075927 | 60 | 130 | 2.0 | 2.0 | 0.00 | 0.00 | 0.00 | 71 | 1011.5 |
| 20260505075424 | 60 | 166 | 1.0 | 2.0 | 0.00 | 0.00 | 0.00 | 71 | 1011.3 |
| 20260505074921 | 60 | 203 | 1.0 | 1.0 | 0.00 | 0.00 | 0.00 | 70 | 1011.2 |
| 20260505074419 | 61 | 109 | 0.0 | 2.0 | 0.00 | 0.00 | 0.00 | 68 | 1011.3 |
| 20260505073915 | 62 | 150 | 1.0 | 1.0 | 0.00 | 0.00 | 0.00 | 67 | 1011.1 |
| 20260505073413 | 63 | 92 | 1.0 | 2.0 | 0.00 | 0.00 | 0.00 | 65 | 1011.1 |
| 20260505072910 | 64 | 287 | 1.0 | 2.0 | 0.00 | 0.00 | 0.00 | 63 | 1011.0 |
| 20260505072406 | 65 | 226 | 1.0 | 2.0 | 0.00 | 0.00 | 0.00 | 62 | 1010.8 |
| 20260505071903 | 64 | 281 | 4.0 | 9.0 | 0.00 | 0.00 | 0.00 | 62 | 1011.0 |
| 20260505071359 | 63 | 240 | 2.0 | 6.0 | 0.00 | 0.00 | 0.00 | 63 | 1011.2 |
| 20260505070857 | 63 | 263 | 3.0 | 3.0 | 0.00 | 0.00 | 0.00 | 64 | 1011.2 |
| 20260505070353 | 64 | 276 | 3.0 | 3.0 | 0.00 | 0.00 | 0.00 | 63 | 1011.0 |
| 20260505065849 | 64 | 262 | 5.0 | 7.0 | 0.00 | 0.00 | 0.00 | 61 | 1011.3 |
| 20260505065346 | 64 | 318 | 2.0 | 4.0 | 0.00 | 0.00 | 0.00 | 61 | 1011.1 |
| 20260505064843 | 64 | 262 | 4.0 | 8.0 | 0.00 | 0.00 | 0.00 | 61 | 1011.4 |
| 20260505064340 | 64 | 268 | 3.0 | 8.0 | 0.00 | 0.00 | 0.00 | 61 | 1011.4 |
| 20260505063838 | 64 | 264 | 5.0 | 10.0 | 0.00 | 0.00 | 0.00 | 61 | 1011.5 |
| 20260505063333 | 64 | 231 | 6.0 | 8.0 | 0.00 | 0.00 | 0.00 | 61 | 1011.3 |
| 20260505062830 | 64 | 227 | 4.0 | 6.0 | 0.00 | 0.00 | 0.00 | 60 | 1011.3 |
| 20260505062328 | 65 | 240 | 6.0 | 10.0 | 0.00 | 0.00 | 0.00 | 60 | 1011.5 |
| 20260505061824 | 65 | 282 | 3.0 | 6.0 | 0.00 | 0.00 | 0.00 | 60 | 1011.2 |
| 20260505061323 | 65 | 209 | 5.0 | 8.0 | 0.00 | 0.00 | 0.00 | 59 | 1011.4 |
| 20260505060820 | 66 | 294 | 4.0 | 9.0 | 0.00 | 0.00 | 0.00 | 58 | 1011.3 |
| 20260505060316 | 66 | 236 | 3.0 | 9.0 | 0.00 | 0.00 | 0.00 | 58 | 1011.3 |
| 20260505055812 | 67 | 307 | 5.0 | 15.0 | 0.00 | 0.00 | 0.00 | 56 | 1011.2 |
| 20260505055308 | 66 | 252 | 6.0 | 13.0 | 0.00 | 0.00 | 0.00 | 57 | 1011.3 |
| 20260505054806 | 67 | 240 | 3.0 | 10.0 | 0.00 | 0.00 | 0.00 | 57 | 1011.3 |
| 20260505054303 | 67 | 267 | 6.0 | 10.0 | 0.00 | 0.00 | 0.00 | 57 | 1011.2 |
| 20260505053801 | 66 | 219 | 8.0 | 11.0 | 0.00 | 0.00 | 0.00 | 57 | 1011.1 |
| 20260505053258 | 65 | 232 | 5.0 | 13.0 | 0.00 | 0.00 | 0.00 | 58 | 1010.8 |
| 20260505052755 | 65 | 233 | 6.0 | 11.0 | 0.00 | 0.00 | 0.00 | 58 | 1011.1 |
| 20260505052252 | 65 | 294 | 5.0 | 11.0 | 0.00 | 0.00 | 0.00 | 58 | 1010.9 |
| 20260505051749 | 65 | 236 | 7.0 | 13.0 | 0.00 | 0.00 | 0.00 | 58 | 1011.1 |
| 20260505051247 | 65 | 263 | 6.0 | 13.0 | 0.00 | 0.00 | 0.00 | 57 | 1011.0 |
| 20260505050744 | 65 | 5 | 8.0 | 15.0 | 0.00 | 0.00 | 0.00 | 57 | 1010.9 |
| 20260505050243 | 65 | 225 | 6.0 | 11.0 | 0.00 | 0.00 | 0.00 | 58 | 1011.1 |
| 20260505041712 | 65 | 260 | 6.0 | 13.0 | 0.00 | 0.00 | 0.00 | 56 | 1011.0 |
| 20260505041210 | 65 | 166 | 4.0 | 14.0 | 0.00 | 0.00 | 0.00 | 56 | 1010.9 |
| 20260505040707 | 65 | 216 | 6.0 | 17.0 | 0.00 | 0.00 | 0.00 | 56 | 1010.9 |
| 20260505040204 | 65 | 237 | 5.0 | 13.0 | 0.00 | 0.00 | 0.00 | 57 | 1010.9 |
| 20260505035701 | 65 | 290 | 4.0 | 14.0 | 0.00 | 0.00 | 0.00 | 57 | 1010.9 |
| 20260505035156 | 65 | 239 | 9.0 | 13.0 | 0.00 | 0.00 | 0.00 | 57 | 1011.0 |
| 20260505034653 | 64 | 256 | 7.0 | 11.0 | 0.00 | 0.00 | 0.00 | 57 | 1010.9 |
| 20260505034151 | 65 | 244 | 6.0 | 11.0 | 0.00 | 0.00 | 0.00 | 57 | 1010.9 |
| 20260505033646 | 65 | 264 | 7.0 | 10.0 | 0.00 | 0.00 | 0.00 | 57 | 1010.8 |
| 20260505033145 | 65 | 251 | 5.0 | 10.0 | 0.00 | 0.00 | 0.00 | 57 | 1010.6 |
| 20260505032643 | 64 | 260 | 6.0 | 13.0 | 0.00 | 0.00 | 0.00 | 56 | 1010.6 |
| 20260505032138 | 65 | 247 | 9.0 | 13.0 | 0.00 | 0.00 | 0.00 | 56 | 1010.6 |
| 20260505031636 | 65 | 219 | 7.0 | 10.0 | 0.00 | 0.00 | 0.00 | 56 | 1010.7 |
| 20260505031132 | 65 | 229 | 9.0 | 14.0 | 0.00 | 0.00 | 0.00 | 55 | 1010.4 |
| 20260505030629 | 65 | 197 | 12.0 | 16.0 | 0.00 | 0.00 | 0.00 | 55 | 1010.7 |
| 20260505030125 | 64 | 258 | 8.0 | 14.0 | 0.00 | 0.00 | 0.00 | 57 | 1010.4 |
| 20260505025621 | 64 | 11 | 3.0 | 9.0 | 0.00 | 0.00 | 0.00 | 58 | 1010.6 |
| 20260505025120 | 64 | 233 | 4.0 | 13.0 | 0.00 | 0.00 | 0.00 | 58 | 1010.5 |
| 20260505024617 | 64 | 291 | 9.0 | 13.0 | 0.00 | 0.00 | 0.00 | 56 | 1010.5 |
| 20260505024114 | 65 | 178 | 6.0 | 19.0 | 0.00 | 0.00 | 0.00 | 56 | 1010.5 |
| 20260505023611 | 64 | 282 | 6.0 | 11.0 | 0.00 | 0.00 | 0.00 | 56 | 1010.6 |
| 20260505023109 | 64 | 242 | 5.0 | 16.0 | 0.00 | 0.00 | 0.00 | 56 | 1010.9 |
| 20260505022606 | 64 | 264 | 4.0 | 10.0 | 0.00 | 0.00 | 0.00 | 56 | 1010.8 |
| 20260505022103 | 64 | 259 | 5.0 | 10.0 | 0.00 | 0.00 | 0.00 | 56 | 1010.9 |
| 20260505021559 | 64 | 229 | 6.0 | 11.0 | 0.00 | 0.00 | 0.00 | 55 | 1010.9 |
| 20260505021056 | 64 | 221 | 6.0 | 11.0 | 0.00 | 0.00 | 0.00 | 56 | 1010.6 |
| 20260505020556 | 64 | 214 | 4.0 | 6.0 | 0.00 | 0.00 | 0.00 | 56 | 1010.8 |
| 20260505020053 | 64 | 253 | 4.0 | 8.0 | 0.00 | 0.00 | 0.00 | 55 | 1010.6 |
| 20260505015551 | 64 | 227 | 8.0 | 10.0 | 0.00 | 0.00 | 0.00 | 55 | 1010.8 |
| 20260505015047 | 64 | 225 | 7.0 | 15.0 | 0.00 | 0.00 | 0.00 | 54 | 1010.9 |
| 20260505014544 | 64 | 330 | 7.0 | 15.0 | 0.00 | 0.00 | 0.00 | 54 | 1010.8 |
| 20260505014041 | 64 | 223 | 4.0 | 11.0 | 0.00 | 0.00 | 0.00 | 54 | 1010.8 |
| 20260505013538 | 64 | 147 | 5.0 | 9.0 | 0.00 | 0.00 | 0.00 | 54 | 1010.8 |
| 20260505013036 | 65 | 218 | 2.0 | 8.0 | 0.00 | 0.00 | 0.00 | 54 | 1010.9 |
| 20260505012534 | 65 | 180 | 6.0 | 10.0 | 0.00 | 0.00 | 0.00 | 52 | 1010.9 |
| 20260505012030 | 65 | 255 | 4.0 | 10.0 | 0.00 | 0.00 | 0.00 | 53 | 1010.7 |
| 20260505011526 | 65 | 190 | 6.0 | 11.0 | 0.00 | 0.00 | 0.00 | 52 | 1010.8 |
| 20260505011023 | 65 | 197 | 5.0 | 14.0 | 0.00 | 0.00 | 0.00 | 52 | 1010.6 |
| 20260505010518 | 65 | 139 | 4.0 | 9.0 | 0.00 | 0.00 | 0.00 | 52 | 1010.8 |
| 20260505010015 | 65 | 193 | 5.0 | 14.0 | 0.00 | 0.00 | 0.00 | 51 | 1010.6 |
| 20260505005512 | 65 | 184 | 6.0 | 9.0 | 0.00 | 0.00 | 0.00 | 51 | 1010.7 |
| 20260505005009 | 66 | 217 | 4.0 | 10.0 | 0.00 | 0.00 | 0.00 | 51 | 1010.9 |
| 20260505004506 | 65 | 175 | 6.0 | 11.0 | 0.00 | 0.00 | 0.00 | 51 | 1010.6 |
| 20260505004003 | 66 | 285 | 2.0 | 13.0 | 0.00 | 0.00 | 0.00 | 51 | 1010.4 |
| 20260505003500 | 66 | 250 | 6.0 | 10.0 | 0.00 | 0.00 | 0.00 | 50 | 1010.7 |
| 20260505002956 | 66 | 241 | 5.0 | 7.0 | 0.00 | 0.00 | 0.00 | 50 | 1010.6 |
| 20260505002452 | 66 | 236 | 3.0 | 13.0 | 0.00 | 0.00 | 0.00 | 50 | 1010.6 |
| 20260505001951 | 66 | 321 | 7.0 | 16.0 | 0.00 | 0.00 | 0.00 | 50 | 1010.4 |
| 20260505001448 | 66 | 185 | 3.0 | 10.0 | 0.00 | 0.00 | 0.00 | 51 | 1010.5 |
| 20260505000945 | 66 | 180 | 6.0 | 8.0 | 0.00 | 0.00 | 0.00 | 51 | 1010.6 |
| 20260505000443 | 67 | 196 | 5.0 | 10.0 | 0.00 | 0.00 | 0.00 | 50 | 1010.6 |
| 20260504235940 | 67 | 238 | 6.0 | 9.0 | 0.00 | 0.00 | 0.00 | 50 | 1010.6 |
| 20260504235437 | 67 | 17 | 3.0 | 6.0 | 0.00 | 0.00 | 0.00 | 50 | 1010.7 |
| 20260504234933 | 67 | 224 | 5.0 | 11.0 | 0.00 | 0.00 | 0.00 | 50 | 1010.6 |
| 20260504234431 | 67 | 301 | 6.0 | 9.0 | 0.00 | 0.00 | 0.00 | 49 | 1010.5 |
| 20260504233927 | 68 | 190 | 8.0 | 13.0 | 0.00 | 0.00 | 0.00 | 49 | 1010.3 |
| 20260504233423 | 68 | 215 | 6.0 | 15.0 | 0.00 | 0.00 | 0.00 | 47 | 1010.2 |
| 20260504232920 | 68 | 213 | 11.0 | 17.0 | 0.00 | 0.00 | 0.00 | 47 | 1010.3 |
| 20260504232417 | 69 | 133 | 7.0 | 13.0 | 0.00 | 0.00 | 0.00 | 47 | 1010.4 |
| 20260504231914 | 69 | 239 | 4.0 | 11.0 | 0.00 | 0.00 | 0.00 | 48 | 1010.4 |
| 20260504231410 | 69 | 136 | 4.0 | 13.0 | 0.00 | 0.00 | 0.00 | 48 | 1010.5 |
| 20260504230907 | 69 | 237 | 6.0 | 14.0 | 0.00 | 0.00 | 0.00 | 47 | 1010.2 |
| 20260504230404 | 70 | 204 | 8.0 | 11.0 | 0.00 | 0.00 | 0.00 | 46 | 1010.1 |
| 20260504225903 | 70 | 235 | 4.0 | 8.0 | 0.00 | 0.00 | 0.00 | 47 | 1010.1 |
| 20260504225359 | 70 | 261 | 6.0 | 11.0 | 0.00 | 0.00 | 0.00 | 46 | 1010.2 |
| 20260504224857 | 71 | 187 | 4.0 | 10.0 | 0.00 | 0.00 | 0.00 | 46 | 1010.2 |
| 20260504224353 | 72 | 234 | 9.0 | 11.0 | 0.00 | 0.00 | 0.00 | 43 | 1010.4 |
| 20260504223850 | 72 | 279 | 5.0 | 13.0 | 0.00 | 0.00 | 0.00 | 43 | 1010.3 |
| 20260504223345 | 72 | 266 | 8.0 | 15.0 | 0.00 | 0.00 | 0.00 | 42 | 1010.2 |
| 20260504222842 | 73 | 290 | 5.0 | 8.0 | 0.00 | 0.00 | 0.00 | 42 | 1010.3 |
| 20260504222339 | 73 | 271 | 4.0 | 8.0 | 0.00 | 0.00 | 0.00 | 42 | 1010.1 |
| 20260504221837 | 73 | 281 | 8.0 | 11.0 | 0.00 | 0.00 | 0.00 | 41 | 1010.2 |
| 20260504221334 | 73 | 324 | 4.0 | 10.0 | 0.00 | 0.00 | 0.00 | 42 | 1010.3 |
| 20260504220831 | 73 | 262 | 2.0 | 7.0 | 0.00 | 0.00 | 0.00 | 44 | 1010.3 |
| 20260504220327 | 73 | 197 | 7.0 | 15.0 | 0.00 | 0.00 | 0.00 | 41 | 1010.2 |
| 20260504215825 | 73 | 329 | 4.0 | 6.0 | 0.00 | 0.00 | 0.00 | 42 | 1010.0 |
| 20260504215321 | 73 | 267 | 5.0 | 8.0 | 0.00 | 0.00 | 0.00 | 41 | 1010.2 |
| 20260504214817 | 73 | 225 | 3.0 | 11.0 | 0.00 | 0.00 | 0.00 | 41 | 1010.3 |
| 20260504214314 | 73 | 267 | 9.0 | 13.0 | 0.00 | 0.00 | 0.00 | 41 | 1010.5 |
| 20260504213811 | 74 | 255 | 5.0 | 9.0 | 0.00 | 0.00 | 0.00 | 40 | 1010.4 |
| 20260504213307 | 73 | 327 | 4.0 | 13.0 | 0.00 | 0.00 | 0.00 | 41 | 1010.3 |
| 20260504212804 | 73 | 301 | 4.0 | 7.0 | 0.00 | 0.00 | 0.00 | 42 | 1010.4 |
| 20260504212300 | 73 | 236 | 6.0 | 13.0 | 0.00 | 0.00 | 0.00 | 41 | 1010.4 |
| 20260504211758 | 73 | 326 | 3.0 | 8.0 | 0.00 | 0.00 | 0.00 | 41 | 1010.5 |
| 20260504211248 | 74 | 279 | 5.0 | 9.0 | 0.00 | 0.00 | 0.00 | 41 | 1010.5 |
| 20260504210746 | 73 | 324 | 9.0 | 11.0 | 0.00 | 0.00 | 0.00 | 41 | 1010.3 |
| 20260504210243 | 73 | 228 | 3.0 | 7.0 | 0.00 | 0.00 | 0.00 | 43 | 1010.6 |
| 20260504205740 | 74 | 303 | 7.0 | 10.0 | 0.00 | 0.00 | 0.00 | 41 | 1010.6 |
| 20260504205238 | 74 | 314 | 3.0 | 8.0 | 0.00 | 0.00 | 0.00 | 43 | 1010.6 |
| 20260504204736 | 74 | 232 | 4.0 | 8.0 | 0.00 | 0.00 | 0.00 | 42 | 1010.6 |
| 20260504204234 | 74 | 150 | 3.0 | 11.0 | 0.00 | 0.00 | 0.00 | 43 | 1010.7 |
| 20260504203733 | 74 | 297 | 2.0 | 8.0 | 0.00 | 0.00 | 0.00 | 41 | 1010.5 |
| 20260504203230 | 74 | 294 | 6.0 | 8.0 | 0.00 | 0.00 | 0.00 | 43 | 1010.5 |
| 20260504202730 | 74 | 296 | 5.0 | 9.0 | 0.00 | 0.00 | 0.00 | 42 | 1010.6 |
| 20260504202227 | 73 | 320 | 4.0 | 9.0 | 0.00 | 0.00 | 0.00 | 42 | 1010.8 |
| 20260504201724 | 74 | 257 | 4.0 | 9.0 | 0.00 | 0.00 | 0.00 | 41 | 1010.6 |
| 20260504201221 | 73 | 334 | 5.0 | 9.0 | 0.00 | 0.00 | 0.00 | 40 | 1010.9 |
| 20260504200719 | 73 | 317 | 6.0 | 8.0 | 0.00 | 0.00 | 0.00 | 41 | 1010.9 |
| 20260504200215 | 73 | 294 | 6.0 | 11.0 | 0.00 | 0.00 | 0.00 | 42 | 1011.2 |
| 20260504195711 | 72 | 268 | 5.0 | 10.0 | 0.00 | 0.00 | 0.00 | 44 | 1011.2 |
| 20260504195207 | 72 | 197 | 8.0 | 13.0 | 0.00 | 0.00 | 0.00 | 43 | 1011.3 |
| 20260504194704 | 71 | 252 | 5.0 | 10.0 | 0.00 | 0.00 | 0.00 | 43 | 1011.4 |
| 20260504194201 | 72 | 265 | 5.0 | 17.0 | 0.00 | 0.00 | 0.00 | 43 | 1011.3 |
| 20260504193657 | 72 | 243 | 11.0 | 14.0 | 0.00 | 0.00 | 0.00 | 43 | 1011.2 |
| 20260504193155 | 73 | 264 | 6.0 | 9.0 | 0.00 | 0.00 | 0.00 | 42 | 1011.4 |
| 20260504192653 | 72 | 266 | 6.0 | 13.0 | 0.00 | 0.00 | 0.00 | 43 | 1011.4 |
| 20260504192150 | 72 | 259 | 6.0 | 15.0 | 0.00 | 0.00 | 0.00 | 43 | 1011.6 |
| 20260504191649 | 72 | 299 | 4.0 | 14.0 | 0.00 | 0.00 | 0.00 | 44 | 1011.5 |
| 20260504191144 | 72 | 348 | 4.0 | 15.0 | 0.00 | 0.00 | 0.00 | 43 | 1011.8 |
| 20260504190641 | 72 | 330 | 5.0 | 10.0 | 0.00 | 0.00 | 0.00 | 42 | 1011.7 |
| 20260504190138 | 71 | 248 | 6.0 | 16.0 | 0.00 | 0.00 | 0.00 | 44 | 1011.7 |
| 20260504185634 | 72 | 245 | 7.0 | 13.0 | 0.00 | 0.00 | 0.00 | 44 | 1012.0 |
| 20260504185131 | 72 | 228 | 5.0 | 9.0 | 0.00 | 0.00 | 0.00 | 41 | 1012.0 |
| 20260504184626 | 72 | 294 | 5.0 | 9.0 | 0.00 | 0.00 | 0.00 | 41 | 1012.1 |
| 20260504184122 | 71 | 240 | 7.0 | 9.0 | 0.00 | 0.00 | 0.00 | 44 | 1011.9 |
| 20260504183619 | 71 | 208 | 5.0 | 14.0 | 0.00 | 0.00 | 0.00 | 45 | 1011.9 |
| 20260504183117 | 71 | 288 | 4.0 | 9.0 | 0.00 | 0.00 | 0.00 | 42 | 1012.0 |
| 20260504182614 | 71 | 273 | 6.0 | 15.0 | 0.00 | 0.00 | 0.00 | 44 | 1012.2 |
| 20260504182112 | 70 | 237 | 2.0 | 9.0 | 0.00 | 0.00 | 0.00 | 44 | 1012.3 |
| 20260504181609 | 72 | 314 | 9.0 | 11.0 | 0.00 | 0.00 | 0.00 | 44 | 1012.2 |
| 20260504181106 | 71 | 297 | 6.0 | 13.0 | 0.00 | 0.00 | 0.00 | 43 | 1012.4 |
| 20260504180605 | 71 | 290 | 6.0 | 13.0 | 0.00 | 0.00 | 0.00 | 45 | 1012.3 |
| 20260504180104 | 71 | 329 | 4.0 | 8.0 | 0.00 | 0.00 | 0.00 | 42 | 1012.5 |
| 20260504175601 | 71 | 200 | 3.0 | 11.0 | 0.00 | 0.00 | 0.00 | 45 | 1012.2 |
| 20260504175057 | 71 | 330 | 4.0 | 9.0 | 0.00 | 0.00 | 0.00 | 43 | 1012.5 |
| 20260504174555 | 70 | 281 | 6.0 | 14.0 | 0.00 | 0.00 | 0.00 | 46 | 1012.5 |
| 20260504174051 | 71 | 259 | 6.0 | 10.0 | 0.00 | 0.00 | 0.00 | 44 | 1012.6 |
| 20260504173548 | 71 | 239 | 4.0 | 9.0 | 0.00 | 0.00 | 0.00 | 43 | 1012.7 |
| 20260504173046 | 69 | 5 | 4.0 | 7.0 | 0.00 | 0.00 | 0.00 | 45 | 1012.8 |
| 20260504172542 | 70 | 264 | 11.0 | 13.0 | 0.00 | 0.00 | 0.00 | 45 | 1013.0 |
| 20260504172039 | 70 | 320 | 9.0 | 10.0 | 0.00 | 0.00 | 0.00 | 43 | 1012.8 |
| 20260504171536 | 69 | 258 | 7.0 | 9.0 | 0.00 | 0.00 | 0.00 | 43 | 1013.1 |
| 20260504171033 | 69 | 292 | 7.0 | 9.0 | 0.00 | 0.00 | 0.00 | 43 | 1013.3 |
| 20260504170528 | 69 | 295 | 9.0 | 11.0 | 0.00 | 0.00 | 0.00 | 43 | 1013.4 |